| time (UTC) | temp F | wind direction | speed MPH | gust MPH | rain 1hr in | rain 24hr in | rain mn in | humidity % | barometer mb |
| 20260508121758 | 70 | 124 | 5.0 | 12.0 | 0.00 | 0.00 | 0.00 | 50 | 1016.3 |
| 20260508121257 | 70 | 122 | 5.0 | 9.0 | 0.00 | 0.00 | 0.00 | 51 | 1016.3 |
| 20260508120257 | 70 | 119 | 6.0 | 13.0 | 0.00 | 0.00 | 0.00 | 51 | 1016.3 |
| 20260508115758 | 70 | 86 | 6.0 | 10.0 | 0.00 | 0.00 | 0.00 | 50 | 1016.3 |
| 20260508114758 | 70 | 127 | 5.0 | 15.0 | 0.00 | 0.00 | 0.00 | 51 | 1016.3 |
| 20260508114258 | 70 | 127 | 5.0 | 12.0 | 0.00 | 0.00 | 0.00 | 52 | 1016.4 |
| 20260508113758 | 70 | 107 | 5.0 | 10.0 | 0.00 | 0.00 | 0.00 | 51 | 1016.4 |
| 20260508113257 | 69 | 125 | 5.0 | 8.0 | 0.00 | 0.03 | 0.00 | 53 | 1016.4 |
| 20260508112257 | 69 | 126 | 5.0 | 12.0 | 0.00 | 0.03 | 0.00 | 52 | 1016.5 |
| 20260508111758 | 69 | 119 | 5.0 | 13.0 | 0.00 | 0.06 | 0.00 | 53 | 1016.5 |
| 20260508111257 | 69 | 101 | 3.0 | 12.0 | 0.00 | 0.07 | 0.00 | 53 | 1016.7 |
| 20260508110757 | 69 | 110 | 3.0 | 10.0 | 0.00 | 0.08 | 0.00 | 54 | 1016.7 |
| 20260508110257 | 69 | 109 | 3.0 | 12.0 | 0.00 | 0.10 | 0.00 | 55 | 1016.7 |
| 20260508105757 | 69 | 107 | 3.0 | 10.0 | 0.00 | 0.14 | 0.00 | 53 | 1016.8 |
| 20260508105257 | 69 | 133 | 5.0 | 12.0 | 0.00 | 0.14 | 0.00 | 55 | 1016.8 |
| 20260508104758 | 68 | 105 | 5.0 | 9.0 | 0.00 | 0.14 | 0.00 | 55 | 1016.8 |
| 20260508104259 | 68 | 123 | 6.0 | 9.0 | 0.00 | 0.14 | 0.00 | 55 | 1016.9 |
| 20260508103759 | 68 | 122 | 6.0 | 13.0 | 0.00 | 0.14 | 0.00 | 56 | 1016.9 |
| 20260508103258 | 68 | 92 | 3.0 | 12.0 | 0.00 | 0.14 | 0.00 | 54 | 1016.9 |
| 20260508102757 | 68 | 114 | 3.0 | 13.0 | 0.00 | 0.14 | 0.00 | 55 | 1017.0 |
| 20260508102258 | 68 | 123 | 5.0 | 12.0 | 0.00 | 0.14 | 0.00 | 55 | 1017.0 |
| 20260508101758 | 68 | 110 | 5.0 | 8.0 | 0.00 | 0.14 | 0.00 | 55 | 1017.0 |
| 20260508101257 | 67 | 80 | 3.0 | 10.0 | 0.00 | 0.14 | 0.00 | 56 | 1017.2 |
| 20260508100757 | 67 | 89 | 3.0 | 12.0 | 0.00 | 0.14 | 0.00 | 56 | 1017.2 |
| 20260508100258 | 67 | 83 | 1.0 | 12.0 | 0.00 | 0.14 | 0.00 | 58 | 1017.2 |
| 20260508095257 | 67 | 61 | 0.0 | 9.0 | 0.00 | 0.14 | 0.00 | 55 | 1017.2 |
| 20260508094759 | 67 | 126 | 0.0 | 0.0 | 0.00 | 0.14 | 0.00 | 56 | 1017.2 |
| 20260508094257 | 66 | 115 | 1.0 | 0.0 | 0.00 | 0.14 | 0.00 | 55 | 1017.4 |
| 20260508093258 | 66 | 94 | 0.0 | 6.0 | 0.00 | 0.14 | 0.00 | 57 | 1017.4 |
| 20260508092757 | 65 | 67 | 0.0 | 6.0 | 0.00 | 0.14 | 0.00 | 59 | 1017.5 |
| 20260508092258 | 65 | 70 | 0.0 | 0.0 | 0.00 | 0.14 | 0.00 | 58 | 1017.5 |
| 20260508091757 | 65 | 90 | 0.0 | 0.0 | 0.00 | 0.14 | 0.00 | 59 | 1017.5 |
| 20260508091259 | 65 | 23 | 0.0 | 0.0 | 0.00 | 0.14 | 0.00 | 61 | 1017.4 |
| 20260508090757 | 65 | 108 | 0.0 | 0.0 | 0.00 | 0.14 | 0.00 | 59 | 1017.4 |
| 20260508090258 | 65 | 84 | 0.0 | 6.0 | 0.00 | 0.14 | 0.00 | 61 | 1017.4 |
| 20260508085759 | 64 | 44 | 0.0 | 0.0 | 0.00 | 0.14 | 0.00 | 61 | 1017.4 |
| 20260508085258 | 64 | 33 | 1.0 | 2.0 | 0.00 | 0.14 | 0.00 | 61 | 1017.4 |
| 20260508084757 | 64 | 73 | 1.0 | 5.0 | 0.00 | 0.14 | 0.00 | 64 | 1017.4 |
| 20260508083259 | 62 | 33 | 0.0 | 0.0 | 0.00 | 0.14 | 0.00 | 64 | 1017.7 |
| 20260508082759 | 62 | 52 | 0.0 | 0.0 | 0.00 | 0.14 | 0.00 | 65 | 1017.7 |
| 20260508082257 | 62 | 77 | 1.0 | 0.0 | 0.00 | 0.14 | 0.00 | 66 | 1017.7 |
| 20260508081758 | 62 | 335 | 1.0 | 0.0 | 0.00 | 0.14 | 0.00 | 64 | 1017.7 |
| 20260508081258 | 61 | 5 | 0.0 | 5.0 | 0.00 | 0.14 | 0.00 | 67 | 1017.9 |
| 20260508080258 | 60 | 56 | 0.0 | 0.0 | 0.00 | 0.14 | 0.00 | 67 | 1017.9 |
| 20260508075758 | 60 | 0 | 0.0 | 0.0 | 0.00 | 0.14 | 0.00 | 70 | 1017.8 |
| 20260508075258 | 60 | 109 | 0.0 | 9.0 | 0.00 | 0.14 | 0.00 | 70 | 1017.8 |
| 20260508074758 | 60 | 1 | 0.0 | 0.0 | 0.00 | 0.14 | 0.00 | 70 | 1017.8 |
| 20260508074258 | 59 | 23 | 0.0 | 1.0 | 0.00 | 0.14 | 0.00 | 71 | 1017.9 |
| 20260508073758 | 59 | 136 | 0.0 | 0.0 | 0.00 | 0.14 | 0.00 | 70 | 1017.9 |
| 20260508073258 | 59 | 171 | 0.0 | 0.0 | 0.00 | 0.14 | 0.00 | 72 | 1017.9 |
| 20260508072757 | 59 | 51 | 0.0 | 0.0 | 0.00 | 0.14 | 0.00 | 72 | 1017.9 |
| 20260508071257 | 58 | 14 | 0.0 | 0.0 | 0.00 | 0.14 | 0.00 | 74 | 1017.8 |
| 20260508070757 | 58 | 49 | 0.0 | 0.0 | 0.00 | 0.14 | 0.00 | 72 | 1017.8 |
| 20260508070257 | 58 | 329 | 0.0 | 0.0 | 0.00 | 0.14 | 0.00 | 73 | 1017.8 |
| 20260508065800 | 58 | 25 | 0.0 | 0.0 | 0.00 | 0.14 | 0.00 | 74 | 1017.8 |
| 20260508065257 | 57 | 321 | 0.0 | 5.0 | 0.00 | 0.14 | 0.00 | 73 | 1017.8 |
| 20260508064758 | 57 | 355 | 0.0 | 0.0 | 0.00 | 0.14 | 0.00 | 76 | 1017.8 |
| 20260508064257 | 57 | 16 | 0.0 | 5.0 | 0.00 | 0.14 | 0.00 | 76 | 1017.8 |
| 20260508063758 | 56 | 16 | 0.0 | 3.0 | 0.00 | 0.14 | 0.00 | 76 | 1017.8 |
| 20260508063258 | 56 | 12 | 0.0 | 0.0 | 0.00 | 0.14 | 0.00 | 77 | 1017.8 |
| 20260508062757 | 57 | 18 | 0.0 | 0.0 | 0.00 | 0.14 | 0.00 | 77 | 1017.7 |
| 20260508062258 | 57 | 16 | 0.0 | 1.0 | 0.00 | 0.14 | 0.00 | 75 | 1017.7 |
| 20260508061758 | 57 | 53 | 0.0 | 0.0 | 0.00 | 0.14 | 0.00 | 76 | 1017.7 |
| 20260508061259 | 57 | 36 | 0.0 | 0.0 | 0.00 | 0.14 | 0.00 | 76 | 1017.7 |
| 20260508060759 | 56 | 4 | 0.0 | 0.0 | 0.00 | 0.14 | 0.00 | 76 | 1017.7 |
| 20260508055800 | 56 | 32 | 0.0 | 0.0 | 0.00 | 0.14 | 0.00 | 79 | 1017.5 |
| 20260508055259 | 56 | 32 | 0.0 | 0.0 | 0.00 | 0.14 | 0.00 | 79 | 1017.5 |
| 20260508054757 | 56 | 32 | 0.0 | 0.0 | 0.00 | 0.14 | 0.00 | 80 | 1017.5 |
| 20260508054258 | 55 | 32 | 0.0 | 0.0 | 0.00 | 0.14 | 0.00 | 79 | 1017.5 |
| 20260508051758 | 54 | 22 | 0.0 | 0.0 | 0.00 | 0.14 | 0.00 | 82 | 1017.6 |
| 20260508051258 | 54 | 3 | 0.0 | 0.0 | 0.00 | 0.14 | 0.00 | 84 | 1017.5 |
| 20260508050759 | 53 | 304 | 0.0 | 2.0 | 0.00 | 0.14 | 0.00 | 85 | 1017.5 |
| 20260508050257 | 53 | 304 | 0.0 | 0.0 | 0.00 | 0.14 | 0.00 | 86 | 1017.5 |
| 20260508045758 | 52 | 304 | 0.0 | 2.0 | 0.00 | 0.14 | 0.00 | 88 | 1017.4 |
| 20260508044758 | 51 | 297 | 0.0 | 0.0 | 0.00 | 0.14 | 0.00 | 90 | 1017.4 |
| 20260508044257 | 50 | 238 | 0.0 | 0.0 | 0.00 | 0.14 | 0.00 | 90 | 1017.2 |
| 20260508043757 | 50 | 237 | 0.0 | 0.0 | 0.00 | 0.14 | 0.00 | 89 | 1017.2 |
| 20260508043257 | 50 | 237 | 0.0 | 0.0 | 0.00 | 0.14 | 0.00 | 89 | 1017.2 |
| 20260508042757 | 50 | 238 | 0.0 | 0.0 | 0.00 | 0.14 | 0.00 | 89 | 1017.2 |
| 20260508042259 | 50 | 233 | 0.0 | 0.0 | 0.00 | 0.14 | 0.00 | 89 | 1017.2 |
| 20260508041257 | 50 | 233 | 0.0 | 0.0 | 0.00 | 0.14 | 0.00 | 88 | 1017.2 |
| 20260508040757 | 50 | 233 | 0.0 | 0.0 | 0.00 | 0.14 | 0.00 | 88 | 1017.2 |
| 20260508040258 | 50 | 233 | 0.0 | 0.0 | 0.00 | 0.14 | 0.00 | 88 | 1017.2 |
| 20260508035758 | 50 | 233 | 0.0 | 0.0 | 0.00 | 0.14 | 0.00 | 88 | 1017.1 |
| 20260508034757 | 50 | 233 | 0.0 | 0.0 | 0.00 | 0.14 | 0.00 | 87 | 1017.1 |
| 20260508033757 | 50 | 233 | 0.0 | 0.0 | 0.00 | 0.14 | 0.00 | 88 | 1017.1 |
| 20260508032758 | 51 | 232 | 0.0 | 0.0 | 0.00 | 0.14 | 0.00 | 87 | 1017.1 |
| 20260508032258 | 51 | 233 | 0.0 | 0.0 | 0.00 | 0.14 | 0.00 | 87 | 1017.1 |
| 20260508031758 | 51 | 233 | 0.0 | 0.0 | 0.00 | 0.14 | 0.00 | 87 | 1017.1 |
| 20260508031258 | 51 | 233 | 0.0 | 0.0 | 0.00 | 0.14 | 0.00 | 87 | 1017.1 |
| 20260508030757 | 51 | 233 | 0.0 | 0.0 | 0.00 | 0.14 | 0.00 | 87 | 1017.1 |
| 20260508030259 | 51 | 233 | 0.0 | 0.0 | 0.00 | 0.14 | 0.00 | 87 | 1017.1 |
| 20260508025758 | 51 | 233 | 0.0 | 0.0 | 0.00 | 0.14 | 0.00 | 88 | 1017.1 |
| 20260508025258 | 50 | 233 | 0.0 | 0.0 | 0.00 | 0.14 | 0.00 | 88 | 1017.1 |
| 20260508024757 | 50 | 233 | 0.0 | 0.0 | 0.00 | 0.14 | 0.00 | 88 | 1017.1 |
| 20260508024258 | 50 | 275 | 0.0 | 0.0 | 0.00 | 0.14 | 0.00 | 87 | 1017.1 |
| 20260508023758 | 50 | 298 | 0.0 | 0.0 | 0.00 | 0.14 | 0.00 | 86 | 1017.1 |
| 20260508023258 | 50 | 298 | 0.0 | 0.0 | 0.00 | 0.14 | 0.00 | 85 | 1017.1 |
| 20260508022757 | 51 | 298 | 0.0 | 0.0 | 0.00 | 0.14 | 0.00 | 83 | 1017.2 |
| 20260508022258 | 51 | 298 | 0.0 | 0.0 | 0.00 | 0.14 | 0.00 | 83 | 1017.2 |
| 20260508021758 | 51 | 298 | 0.0 | 0.0 | 0.00 | 0.14 | 0.00 | 83 | 1017.2 |
| 20260508021259 | 51 | 298 | 0.0 | 0.0 | 0.00 | 0.14 | 0.00 | 83 | 1017.2 |
| 20260508020758 | 51 | 298 | 0.0 | 0.0 | 0.00 | 0.14 | 0.00 | 84 | 1017.2 |
| 20260508020258 | 51 | 317 | 0.0 | 0.0 | 0.00 | 0.14 | 0.00 | 84 | 1017.2 |
| 20260508015757 | 51 | 313 | 0.0 | 0.0 | 0.00 | 0.14 | 0.00 | 86 | 1017.2 |
| 20260508015259 | 51 | 250 | 0.0 | 0.0 | 0.00 | 0.14 | 0.00 | 85 | 1017.2 |
| 20260508014759 | 51 | 281 | 0.0 | 0.0 | 0.00 | 0.14 | 0.00 | 84 | 1017.2 |
| 20260508014259 | 51 | 263 | 0.0 | 0.0 | 0.00 | 0.14 | 0.00 | 85 | 1017.0 |
| 20260508013757 | 51 | 240 | 0.0 | 0.0 | 0.00 | 0.14 | 0.00 | 85 | 1017.0 |
| 20260508013257 | 51 | 236 | 0.0 | 0.0 | 0.00 | 0.14 | 0.00 | 84 | 1017.0 |
| 20260508012758 | 51 | 236 | 0.0 | 0.0 | 0.00 | 0.14 | 0.00 | 84 | 1017.0 |
| 20260508011758 | 51 | 236 | 0.0 | 0.0 | 0.00 | 0.14 | 0.00 | 83 | 1017.0 |
| 20260508010758 | 52 | 236 | 0.0 | 0.0 | 0.00 | 0.14 | 0.00 | 83 | 1017.0 |
| 20260508010259 | 52 | 236 | 0.0 | 0.0 | 0.00 | 0.14 | 0.00 | 83 | 1017.0 |
| 20260508005758 | 52 | 236 | 0.0 | 0.0 | 0.00 | 0.14 | 0.00 | 82 | 1017.0 |
| 20260508005257 | 52 | 236 | 0.0 | 0.0 | 0.00 | 0.14 | 0.00 | 82 | 1017.0 |
| 20260508004758 | 52 | 236 | 0.0 | 0.0 | 0.00 | 0.14 | 0.00 | 81 | 1017.0 |
| 20260508003758 | 53 | 236 | 0.0 | 0.0 | 0.00 | 0.14 | 0.00 | 81 | 1016.9 |
| 20260508003257 | 53 | 237 | 0.0 | 0.0 | 0.00 | 0.14 | 0.00 | 80 | 1016.9 |
| 20260508002758 | 53 | 237 | 0.0 | 0.0 | 0.00 | 0.14 | 0.00 | 79 | 1016.7 |
| 20260508002258 | 53 | 237 | 0.0 | 0.0 | 0.00 | 0.14 | 0.00 | 79 | 1016.7 |
| 20260508001757 | 53 | 237 | 0.0 | 0.0 | 0.00 | 0.14 | 0.00 | 79 | 1016.7 |
| 20260508001258 | 54 | 227 | 0.0 | 0.0 | 0.00 | 0.14 | 0.00 | 78 | 1016.7 |
| 20260508000759 | 54 | 225 | 0.0 | 0.0 | 0.00 | 0.14 | 0.00 | 76 | 1016.7 |
| 20260508000258 | 54 | 249 | 0.0 | 0.0 | 0.00 | 0.14 | 0.00 | 75 | 1016.7 |
| 20260507235758 | 55 | 303 | 0.0 | 0.0 | 0.00 | 0.14 | 0.00 | 74 | 1016.7 |
| 20260507235258 | 55 | 8 | 1.0 | 0.0 | 0.00 | 0.14 | 0.00 | 75 | 1016.7 |
| 20260507234759 | 55 | 311 | 1.0 | 5.0 | 0.00 | 0.14 | 0.00 | 75 | 1016.7 |
| 20260507234259 | 55 | 299 | 2.0 | 3.0 | 0.00 | 0.14 | 0.00 | 76 | 1016.7 |
| 20260507233758 | 55 | 287 | 2.0 | 6.0 | 0.00 | 0.14 | 0.00 | 76 | 1016.7 |
| 20260507232758 | 55 | 310 | 2.0 | 7.0 | 0.00 | 0.14 | 0.00 | 77 | 1016.7 |
| 20260507232258 | 54 | 24 | 0.0 | 8.0 | 0.00 | 0.14 | 0.00 | 78 | 1016.7 |
| 20260507231759 | 54 | 310 | 0.0 | 7.0 | 0.00 | 0.14 | 0.00 | 80 | 1016.7 |
| 20260507231258 | 53 | 297 | 0.0 | 5.0 | 0.00 | 0.14 | 0.00 | 82 | 1016.9 |
| 20260507230758 | 53 | 285 | 0.0 | 5.0 | 0.00 | 0.14 | 0.00 | 83 | 1016.9 |
| 20260507225759 | 53 | 251 | 0.0 | 0.0 | 0.00 | 0.14 | 0.00 | 83 | 1016.9 |
| 20260507225258 | 53 | 251 | 0.0 | 0.0 | 0.00 | 0.14 | 0.00 | 83 | 1016.9 |
| 20260507224259 | 54 | 251 | 0.0 | 0.0 | 0.00 | 0.14 | 0.00 | 83 | 1016.8 |
| 20260507223759 | 54 | 251 | 0.0 | 0.0 | 0.00 | 0.14 | 0.00 | 83 | 1016.8 |
| 20260507223259 | 54 | 251 | 0.0 | 0.0 | 0.00 | 0.14 | 0.00 | 83 | 1016.8 |
| 20260507222259 | 54 | 251 | 0.0 | 0.0 | 0.00 | 0.14 | 0.00 | 83 | 1016.7 |
| 20260507221758 | 54 | 251 | 0.0 | 0.0 | 0.00 | 0.14 | 0.00 | 82 | 1016.7 |
| 20260507221258 | 55 | 251 | 0.0 | 0.0 | 0.00 | 0.14 | 0.00 | 81 | 1016.6 |
| 20260507220758 | 55 | 251 | 0.0 | 0.0 | 0.00 | 0.14 | 0.00 | 81 | 1016.6 |
| 20260507220258 | 55 | 251 | 0.0 | 0.0 | 0.00 | 0.14 | 0.00 | 81 | 1016.6 |
| 20260507215259 | 55 | 251 | 0.0 | 0.0 | 0.00 | 0.14 | 0.14 | 81 | 1016.6 |
| 20260507214759 | 55 | 251 | 0.0 | 0.0 | 0.00 | 0.14 | 0.14 | 81 | 1016.6 |
| 20260507214258 | 55 | 251 | 0.0 | 0.0 | 0.00 | 0.14 | 0.14 | 81 | 1016.6 |
| 20260507213758 | 55 | 251 | 0.0 | 0.0 | 0.00 | 0.14 | 0.14 | 81 | 1016.6 |
| 20260507213257 | 55 | 251 | 0.0 | 0.0 | 0.00 | 0.14 | 0.14 | 81 | 1016.6 |
| 20260507212758 | 55 | 251 | 0.0 | 0.0 | 0.00 | 0.14 | 0.14 | 80 | 1016.5 |
| 20260507211758 | 56 | 251 | 0.0 | 0.0 | 0.00 | 0.14 | 0.14 | 79 | 1016.5 |
| 20260507210757 | 56 | 251 | 0.0 | 0.0 | 0.00 | 0.14 | 0.14 | 79 | 1016.5 |
| 20260507210259 | 56 | 251 | 0.0 | 0.0 | 0.00 | 0.14 | 0.14 | 78 | 1016.5 |
| 20260507205257 | 56 | 229 | 0.0 | 0.0 | 0.00 | 0.14 | 0.14 | 78 | 1016.4 |
| 20260507204257 | 56 | 229 | 0.0 | 0.0 | 0.00 | 0.14 | 0.14 | 79 | 1016.3 |
| 20260507203258 | 56 | 229 | 0.0 | 0.0 | 0.00 | 0.14 | 0.14 | 78 | 1016.3 |
| 20260507202258 | 57 | 229 | 0.0 | 0.0 | 0.00 | 0.14 | 0.14 | 78 | 1016.1 |
| 20260507201258 | 57 | 230 | 0.0 | 0.0 | 0.00 | 0.14 | 0.14 | 78 | 1016.1 |
| 20260507200758 | 57 | 230 | 0.0 | 0.0 | 0.00 | 0.14 | 0.14 | 79 | 1016.1 |
| 20260507200258 | 57 | 230 | 0.0 | 0.0 | 0.00 | 0.14 | 0.14 | 79 | 1016.1 |
| 20260507195759 | 57 | 231 | 0.0 | 0.0 | 0.00 | 0.14 | 0.14 | 81 | 1016.1 |
| 20260507195258 | 57 | 231 | 0.0 | 0.0 | 0.00 | 0.14 | 0.14 | 81 | 1016.1 |
| 20260507194759 | 56 | 226 | 0.0 | 0.0 | 0.00 | 0.14 | 0.14 | 81 | 1016.1 |
| 20260507194258 | 56 | 225 | 0.0 | 0.0 | 0.00 | 0.14 | 0.14 | 81 | 1015.9 |
| 20260507193759 | 56 | 225 | 0.0 | 0.0 | 0.00 | 0.14 | 0.14 | 80 | 1015.9 |
| 20260507193258 | 56 | 225 | 0.0 | 0.0 | 0.00 | 0.14 | 0.14 | 81 | 1015.9 |
| 20260507192758 | 56 | 226 | 0.0 | 0.0 | 0.00 | 0.14 | 0.14 | 81 | 1015.7 |
| 20260507192258 | 57 | 224 | 0.0 | 0.0 | 0.00 | 0.14 | 0.14 | 80 | 1015.7 |
| 20260507191758 | 57 | 224 | 0.0 | 0.0 | 0.00 | 0.14 | 0.14 | 79 | 1015.7 |
| 20260507191259 | 57 | 224 | 0.0 | 0.0 | 0.00 | 0.14 | 0.14 | 79 | 1015.3 |
| 20260507190758 | 57 | 224 | 0.0 | 0.0 | 0.00 | 0.14 | 0.14 | 78 | 1015.3 |
| 20260507190300 | 57 | 224 | 0.0 | 0.0 | 0.00 | 0.14 | 0.14 | 78 | 1015.3 |
| 20260507185758 | 57 | 224 | 0.0 | 0.0 | 0.00 | 0.14 | 0.14 | 78 | 1015.1 |
| 20260507185258 | 57 | 224 | 0.0 | 0.0 | 0.00 | 0.14 | 0.14 | 77 | 1015.1 |
| 20260507184258 | 57 | 224 | 0.0 | 0.0 | 0.00 | 0.14 | 0.14 | 78 | 1014.8 |
| 20260507183258 | 57 | 225 | 0.0 | 0.0 | 0.00 | 0.14 | 0.14 | 77 | 1014.8 |
| 20260507182758 | 57 | 224 | 0.0 | 0.0 | 0.00 | 0.14 | 0.14 | 77 | 1014.6 |
| 20260507181758 | 58 | 222 | 0.0 | 0.0 | 0.00 | 0.14 | 0.14 | 76 | 1014.6 |
| 20260507181258 | 58 | 223 | 0.0 | 0.0 | 0.00 | 0.14 | 0.14 | 75 | 1014.5 |
| 20260507180758 | 58 | 224 | 0.0 | 0.0 | 0.00 | 0.14 | 0.14 | 74 | 1014.5 |
| 20260507180259 | 58 | 223 | 0.0 | 0.0 | 0.00 | 0.14 | 0.14 | 74 | 1014.5 |
| 20260507175259 | 59 | 234 | 0.0 | 0.0 | 0.00 | 0.14 | 0.14 | 73 | 1014.2 |
| 20260507174758 | 59 | 220 | 0.0 | 0.0 | 0.00 | 0.14 | 0.14 | 72 | 1014.2 |
| 20260507174257 | 59 | 222 | 0.0 | 0.0 | 0.00 | 0.14 | 0.14 | 71 | 1014.1 |
| 20260507173758 | 60 | 168 | 0.0 | 0.0 | 0.00 | 0.14 | 0.14 | 70 | 1014.1 |
| 20260507173258 | 60 | 230 | 0.0 | 0.0 | 0.00 | 0.14 | 0.14 | 70 | 1014.1 |
| 20260507172758 | 60 | 231 | 0.0 | 0.0 | 0.00 | 0.14 | 0.14 | 68 | 1013.9 |
| 20260507172258 | 60 | 231 | 0.0 | 0.0 | 0.00 | 0.14 | 0.14 | 67 | 1013.9 |
| 20260507171258 | 60 | 243 | 1.0 | 0.0 | 0.00 | 0.14 | 0.14 | 74 | 1013.8 |
| 20260507170759 | 60 | 243 | 1.0 | 0.0 | 0.00 | 0.14 | 0.14 | 74 | 1013.8 |
| 20260507170258 | 60 | 245 | 0.0 | 6.0 | 0.00 | 0.14 | 0.14 | 75 | 1013.8 |
| 20260507164800 | 61 | 229 | 0.0 | 0.0 | 0.00 | 0.14 | 0.14 | 75 | 1014.0 |
| 20260507164258 | 62 | 229 | 0.0 | 0.0 | 0.00 | 0.14 | 0.14 | 75 | 1013.9 |
| 20260507163758 | 63 | 231 | 0.0 | 0.0 | 0.00 | 0.14 | 0.14 | 74 | 1013.9 |
| 20260507163258 | 63 | 231 | 0.0 | 0.0 | 0.00 | 0.14 | 0.14 | 72 | 1013.9 |
| 20260507162759 | 63 | 231 | 0.0 | 0.0 | 0.00 | 0.14 | 0.14 | 72 | 1013.9 |
| 20260507162259 | 63 | 33 | 0.0 | 0.0 | 0.00 | 0.14 | 0.14 | 69 | 1013.9 |
| 20260507161759 | 63 | 33 | 0.0 | 0.0 | 0.00 | 0.14 | 0.14 | 69 | 1013.9 |
| 20260507161258 | 63 | 33 | 0.0 | 0.0 | 0.00 | 0.14 | 0.14 | 69 | 1014.1 |
| 20260507160758 | 63 | 34 | 0.0 | 0.0 | 0.00 | 0.14 | 0.14 | 69 | 1014.1 |
| 20260507160259 | 63 | 34 | 0.0 | 0.0 | 0.00 | 0.14 | 0.14 | 68 | 1014.1 |
| 20260507155800 | 63 | 29 | 0.0 | 6.0 | 0.00 | 0.14 | 0.14 | 70 | 1014.0 |
| 20260507155300 | 63 | 224 | 0.0 | 0.0 | 0.00 | 0.14 | 0.14 | 72 | 1014.0 |
| 20260507154258 | 63 | 94 | 0.0 | 0.0 | 0.00 | 0.14 | 0.14 | 68 | 1014.0 |
| 20260507153757 | 63 | 94 | 0.0 | 0.0 | 0.00 | 0.14 | 0.14 | 69 | 1014.0 |
| 20260507152758 | 63 | 108 | 0.0 | 0.0 | 0.00 | 0.14 | 0.14 | 69 | 1013.9 |
| 20260507152258 | 63 | 108 | 0.0 | 0.0 | 0.00 | 0.14 | 0.14 | 67 | 1013.9 |
| 20260507151758 | 63 | 102 | 0.0 | 5.0 | 0.00 | 0.14 | 0.14 | 66 | 1013.9 |
| 20260507151259 | 64 | 75 | 0.0 | 0.0 | 0.00 | 0.14 | 0.14 | 65 | 1013.9 |
| 20260507150758 | 64 | 47 | 0.0 | 0.0 | 0.00 | 0.14 | 0.14 | 63 | 1013.9 |
| 20260507150259 | 64 | 113 | 0.0 | 0.0 | 0.00 | 0.14 | 0.14 | 62 | 1013.9 |
| 20260507145759 | 64 | 148 | 0.0 | 0.0 | 0.00 | 0.14 | 0.14 | 62 | 1013.9 |
| 20260507145258 | 64 | 175 | 0.0 | 0.0 | 0.00 | 0.14 | 0.14 | 65 | 1013.9 |
| 20260507144758 | 64 | 219 | 0.0 | 0.0 | 0.00 | 0.14 | 0.14 | 63 | 1013.9 |
| 20260507144258 | 64 | 202 | 0.0 | 0.0 | 0.00 | 0.14 | 0.14 | 63 | 1014.0 |
| 20260507143800 | 64 | 203 | 0.0 | 0.0 | 0.00 | 0.14 | 0.14 | 62 | 1014.0 |
| 20260507143257 | 65 | 140 | 0.0 | 0.0 | 0.00 | 0.14 | 0.14 | 60 | 1014.0 |
| 20260507142758 | 65 | 133 | 0.0 | 0.0 | 0.00 | 0.14 | 0.14 | 61 | 1014.2 |
| 20260507142259 | 65 | 150 | 0.0 | 0.0 | 0.00 | 0.14 | 0.14 | 65 | 1014.2 |
| 20260507141258 | 64 | 60 | 0.0 | 0.0 | 0.00 | 0.14 | 0.14 | 63 | 1014.2 |
| 20260507140758 | 64 | 49 | 0.0 | 0.0 | 0.00 | 0.14 | 0.14 | 62 | 1014.2 |
| 20260507140259 | 64 | 99 | 0.0 | 0.0 | 0.00 | 0.14 | 0.14 | 63 | 1014.2 |
| 20260507135758 | 63 | 112 | 0.0 | 0.0 | 0.00 | 0.14 | 0.14 | 65 | 1014.4 |
| 20260507134800 | 62 | 51 | 0.0 | 0.0 | 0.00 | 0.14 | 0.14 | 68 | 1014.4 |
| 20260507134300 | 62 | 36 | 0.0 | 0.0 | 0.00 | 0.14 | 0.14 | 67 | 1014.4 |
| 20260507133758 | 62 | 40 | 0.0 | 0.0 | 0.00 | 0.14 | 0.14 | 67 | 1014.4 |
| 20260507133258 | 63 | 72 | 0.0 | 0.0 | 0.00 | 0.14 | 0.14 | 68 | 1014.4 |
| 20260507132758 | 63 | 50 | 0.0 | 0.0 | 0.00 | 0.14 | 0.14 | 65 | 1014.5 |
| 20260507132258 | 63 | 22 | 0.0 | 0.0 | 0.00 | 0.14 | 0.14 | 62 | 1014.5 |
| 20260507131759 | 63 | 6 | 0.0 | 0.0 | 0.00 | 0.14 | 0.14 | 60 | 1014.5 |
| 20260507130758 | 62 | 336 | 0.0 | 0.0 | 0.00 | 0.14 | 0.14 | 61 | 1014.6 |
| 20260507130258 | 62 | 336 | 1.0 | 0.0 | 0.00 | 0.14 | 0.14 | 65 | 1014.6 |
| 20260507125758 | 61 | 60 | 1.0 | 0.0 | 0.00 | 0.14 | 0.14 | 65 | 1014.7 |
| 20260507125258 | 61 | 10 | 0.0 | 6.0 | 0.00 | 0.14 | 0.14 | 68 | 1014.7 |
| 20260507124758 | 60 | 37 | 0.0 | 9.0 | 0.00 | 0.14 | 0.14 | 72 | 1014.7 |
| 20260507124259 | 60 | 39 | 0.0 | 0.0 | 0.00 | 0.14 | 0.14 | 67 | 1014.6 |
| 20260507123758 | 59 | 56 | 0.0 | 0.0 | 0.00 | 0.14 | 0.14 | 69 | 1014.6 |
| 20260507123258 | 58 | 343 | 2.0 | 7.0 | 0.03 | 0.14 | 0.14 | 72 | 1014.6 |
| 20260507122758 | 57 | 55 | 2.0 | 5.0 | 0.03 | 0.14 | 0.14 | 84 | 1014.7 |